Private Wetterstation Wechselburg
Wetterdaten: Donnerstag, 03.11.2011
Datum Zeit Temp. +2m Bodentemp. Temp.+5cm Temp. Wind Windchill X Diff Temp. Feuchte +2m Feuchte +5cm Sonnenschein Luftdruck Regen Wind Richtung Richtung Sonnenschein UV Taupunkt Windchill Windben
03.11.2011 00:00 4,5 C 14,3 C 4,9 C 4,2 C 3,7 C 0,0 C 90 % 90 % 0 % 1014,3 hPa 0,0 l/m 0,0 km/h (0 Bft) O 90 0 min 0,0 UV-I 3,0 C 3,7 C 0,0 km/h (0 Bft)
03.11.2011 00:04 4,4 C 14,3 C 4,8 C 4,1 C 3,5 C 0,0 C 90 % 90 % 0 % 1014,3 hPa 0,0 l/m 0,0 km/h (0 Bft) O 90 0 min 0,0 UV-I 2,9 C 3,5 C 0,0 km/h (0 Bft)
03.11.2011 00:09 4,4 C 14,3 C 4,7 C 4,1 C 3,5 C 0,0 C 90 % 89 % 0 % 1014,3 hPa 0,0 l/m 0,2 km/h (0 Bft) O-NO 67 0 min 0,0 UV-I 2,9 C 3,5 C 0,0 km/h (0 Bft)
03.11.2011 00:14 4,3 C 14,3 C 4,5 C 4,0 C 3,5 C 0,0 C 90 % 90 % 0 % 1014,3 hPa 0,0 l/m 0,3 km/h (0 Bft) O-NO 67 0 min 0,0 UV-I 2,8 C 3,5 C 1,8 km/h (1 Bft)
03.11.2011 00:19 4,3 C 14,3 C 4,5 C 4,0 C 3,5 C 0,0 C 90 % 90 % 0 % 1014,3 hPa 0,0 l/m 0,3 km/h (0 Bft) O-NO 67 0 min 0,0 UV-I 2,8 C 3,5 C 1,8 km/h (1 Bft)
03.11.2011 00:25 4,3 C 14,2 C 4,7 C 4,0 C 3,5 C 0,0 C 90 % 90 % 0 % 1013,4 hPa 0,0 l/m 0,2 km/h (0 Bft) NW 315 0 min 0,0 UV-I 2,8 C 3,5 C 0,0 km/h (0 Bft)
03.11.2011 00:30 4,3 C 14,2 C 4,6 C 4,0 C 3,3 C 0,0 C 90 % 90 % 0 % 1013,4 hPa 0,0 l/m 0,0 km/h (0 Bft) W-NW 292 0 min 0,0 UV-I 2,8 C 3,3 C 0,0 km/h (0 Bft)
03.11.2011 00:35 4,0 C 14,2 C 4,5 C 3,7 C 3,0 C 0,0 C 90 % 90 % 0 % 1013,4 hPa 0,0 l/m 0,0 km/h (0 Bft) W-SW 247 0 min 0,0 UV-I 2,5 C 3,0 C 0,0 km/h (0 Bft)
03.11.2011 00:40 3,9 C 14,2 C 4,5 C 3,6 C 3,0 C 0,0 C 90 % 90 % 0 % 1013,9 hPa 0,0 l/m 0,0 km/h (0 Bft) W-SW 247 0 min 0,0 UV-I 2,4 C 3,0 C 0,0 km/h (0 Bft)
03.11.2011 00:45 3,8 C 14,2 C 4,5 C 3,5 C 3,0 C 0,0 C 90 % 90 % 0 % 1013,9 hPa 0,0 l/m 0,0 km/h (0 Bft) W-SW 247 0 min 0,0 UV-I 2,3 C 3,0 C 0,0 km/h (0 Bft)
03.11.2011 00:50 3,8 C 14,2 C 4,4 C 3,5 C 2,9 C 0,0 C 90 % 90 % 0 % 1013,9 hPa 0,0 l/m 0,0 km/h (0 Bft) W 270 0 min 0,0 UV-I 2,3 C 2,9 C 0,0 km/h (0 Bft)
03.11.2011 00:55 3,6 C 14,2 C 4,3 C 3,3 C 2,6 C 0,0 C 90 % 90 % 0 % 1013,9 hPa 0,0 l/m 0,0 km/h (0 Bft) W-SW 247 0 min 0,0 UV-I 2,1 C 2,6 C 0,0 km/h (0 Bft)
03.11.2011 01:00 3,5 C 14,2 C 4,2 C 3,1 C 2,4 C 0,0 C 90 % 90 % 0 % 1013,7 hPa 0,0 l/m 0,0 km/h (0 Bft) W-SW 247 0 min 0,0 UV-I 2,0 C 2,4 C 0,0 km/h (0 Bft)
03.11.2011 01:07 3,5 C 14,2 C 4,1 C 3,1 C 2,4 C 0,0 C 90 % 90 % 0 % 1013,7 hPa 0,0 l/m 0,0 km/h (0 Bft) N 0 0 min 0,0 UV-I 2,0 C 2,4 C 0,0 km/h (0 Bft)
03.11.2011 01:20 3,2 C 14,2 C 4,0 C 2,9 C 2,4 C 0,0 C 90 % 90 % 0 % 1013,5 hPa 0,0 l/m 0,0 km/h (0 Bft) W 270 0 min 0,0 UV-I 1,7 C 2,4 C 0,0 km/h (0 Bft)
03.11.2011 01:25 3,2 C 14,2 C 3,8 C 3,0 C 2,5 C 0,0 C 90 % 90 % 0 % 1013,5 hPa 0,0 l/m 0,0 km/h (0 Bft) O-NO 67 0 min 0,0 UV-I 1,7 C 2,5 C 0,0 km/h (0 Bft)
03.11.2011 01:30 3,2 C 14,2 C 3,9 C 3,0 C 2,6 C 0,0 C 90 % 91 % 0 % 1013,5 hPa 0,0 l/m 0,0 km/h (0 Bft) O-NO 67 0 min 0,0 UV-I 1,7 C 2,6 C 0,0 km/h (0 Bft)
03.11.2011 01:35 3,2 C 14,2 C 3,9 C 3,0 C 2,7 C 0,0 C 91 % 91 % 0 % 1013,5 hPa 0,0 l/m 0,0 km/h (0 Bft) O-NO 67 0 min 0,0 UV-I 1,9 C 2,7 C 0,0 km/h (0 Bft)
03.11.2011 01:40 3,5 C 14,2 C 3,9 C 3,3 C 3,0 C 0,0 C 91 % 91 % 0 % 1013,4 hPa 0,0 l/m 0,2 km/h (0 Bft) O-NO 67 0 min 0,0 UV-I 2,2 C 3,0 C 0,0 km/h (0 Bft)
03.11.2011 01:45 3,6 C 14,2 C 4,0 C 3,5 C 3,3 C 0,0 C 92 % 91 % 0 % 1013,4 hPa 0,0 l/m 0,3 km/h (0 Bft) O-SO 112 0 min 0,0 UV-I 2,4 C 3,3 C 2,1 km/h (1 Bft)
03.11.2011 01:50 3,7 C 14,2 C 4,1 C 3,6 C 3,4 C 0,0 C 92 % 91 % 0 % 1013,4 hPa 0,0 l/m 0,3 km/h (0 Bft) N-NO 22 0 min 0,0 UV-I 2,5 C 3,4 C 2,7 km/h (1 Bft)
03.11.2011 01:55 3,8 C 14,1 C 4,3 C 3,7 C 3,4 C 0,0 C 92 % 91 % 0 % 1013,4 hPa 0,0 l/m 0,0 km/h (0 Bft) SW 225 0 min 0,0 UV-I 2,6 C 3,4 C 0,0 km/h (0 Bft)
03.11.2011 02:00 3,7 C 14,1 C 4,3 C 3,6 C 3,4 C 0,0 C 92 % 91 % 0 % 1013,7 hPa 0,0 l/m 0,6 km/h (0 Bft) SW 225 0 min 0,0 UV-I 2,5 C 3,4 C 0,0 km/h (0 Bft)
03.11.2011 02:05 3,6 C 14,1 C 4,1 C 3,5 C 3,2 C 0,0 C 91 % 91 % 0 % 1013,7 hPa 0,0 l/m 1,1 km/h (1 Bft) SW 225 0 min 0,0 UV-I 2,3 C 3,2 C 0,0 km/h (0 Bft)
03.11.2011 02:10 3,6 C 14,1 C 4,1 C 3,4 C 3,0 C 0,0 C 91 % 91 % 0 % 1013,7 hPa 0,0 l/m 0,5 km/h (0 Bft) S 180 0 min 0,0 UV-I 2,3 C 3,0 C 3,4 km/h (1 Bft)
03.11.2011 02:15 3,5 C 14,1 C 4,1 C 3,3 C 3,0 C 0,0 C 91 % 91 % 0 % 1013,7 hPa 0,0 l/m 0,2 km/h (0 Bft) W-SW 247 0 min 0,0 UV-I 2,2 C 3,0 C 2,3 km/h (1 Bft)
03.11.2011 02:20 3,5 C 14,1 C 4,1 C 3,3 C 3,0 C 0,0 C 91 % 91 % 0 % 1013,3 hPa 0,0 l/m 0,3 km/h (0 Bft) W 270 0 min 0,0 UV-I 2,2 C 3,0 C 0,0 km/h (0 Bft)
03.11.2011 02:25 3,5 C 14,1 C 4,1 C 3,3 C 2,9 C 0,0 C 91 % 91 % 0 % 1013,3 hPa 0,0 l/m 0,2 km/h (0 Bft) W 270 0 min 0,0 UV-I 2,2 C 2,9 C 0,0 km/h (0 Bft)
03.11.2011 02:30 3,5 C 14,1 C 4,0 C 3,3 C 2,8 C 0,0 C 91 % 91 % 0 % 1013,3 hPa 0,0 l/m 0,0 km/h (0 Bft) W-SW 247 0 min 0,0 UV-I 2,2 C 2,8 C 0,0 km/h (0 Bft)
03.11.2011 02:35 3,5 C 14,1 C 3,9 C 3,3 C 2,8 C 0,0 C 91 % 91 % 0 % 1013,3 hPa 0,0 l/m 0,0 km/h (0 Bft) W-NW 292 0 min 0,0 UV-I 2,2 C 2,8 C 0,0 km/h (0 Bft)
03.11.2011 02:40 3,4 C 14,1 C 3,9 C 3,2 C 2,7 C 0,0 C 91 % 91 % 0 % 1013,2 hPa 0,0 l/m 0,0 km/h (0 Bft) O-SO 112 0 min 0,0 UV-I 2,1 C 2,7 C 0,0 km/h (0 Bft)
03.11.2011 02:45 3,3 C 14,1 C 3,9 C 3,1 C 2,7 C 0,0 C 91 % 91 % 0 % 1013,2 hPa 0,0 l/m 0,0 km/h (0 Bft) N-NW 337 0 min 0,0 UV-I 2,0 C 2,7 C 0,0 km/h (0 Bft)
03.11.2011 02:50 3,3 C 14,0 C 3,9 C 3,1 C 2,6 C 0,0 C 91 % 91 % 0 % 1013,2 hPa 0,0 l/m 0,0 km/h (0 Bft) W 270 0 min 0,0 UV-I 2,0 C 2,6 C 0,0 km/h (0 Bft)
03.11.2011 02:55 3,3 C 14,1 C 3,9 C 3,0 C 2,5 C 0,0 C 92 % 91 % 0 % 1013,2 hPa 0,0 l/m 0,2 km/h (0 Bft) N-NW 337 0 min 0,0 UV-I 2,1 C 2,5 C 0,0 km/h (0 Bft)
03.11.2011 03:00 3,3 C 14,0 C 3,9 C 3,0 C 2,5 C 0,0 C 92 % 91 % 0 % 1012,9 hPa 0,0 l/m 0,2 km/h (0 Bft) O-NO 67 0 min 0,0 UV-I 2,1 C 2,5 C 3,5 km/h (1 Bft)
03.11.2011 03:11 3,2 C 14,0 C 3,6 C 3,0 C 2,6 C 0,0 C 91 % 91 % 0 % 1012,9 hPa 0,0 l/m 0,2 km/h (0 Bft) N 0 0 min 0,0 UV-I 1,9 C 2,6 C 0,0 km/h (0 Bft)
03.11.2011 03:20 3,3 C 14,0 C 3,6 C 3,1 C 2,7 C 0,0 C 92 % 91 % 0 % 1012,4 hPa 0,0 l/m 0,0 km/h (0 Bft) O-NO 67 0 min 0,0 UV-I 2,1 C 2,7 C 0,0 km/h (0 Bft)
03.11.2011 03:25 3,2 C 14,0 C 3,7 C 3,0 C 2,5 C 0,0 C 91 % 91 % 0 % 1012,4 hPa 0,0 l/m 0,0 km/h (0 Bft) NW 315 0 min 0,0 UV-I 1,9 C 2,5 C 0,0 km/h (0 Bft)
03.11.2011 03:30 3,1 C 14,0 C 3,6 C 2,8 C 2,3 C 0,0 C 91 % 91 % 0 % 1012,4 hPa 0,0 l/m 0,0 km/h (0 Bft) NW 315 0 min 0,0 UV-I 1,8 C 2,3 C 0,0 km/h (0 Bft)
03.11.2011 03:35 3,0 C 14,0 C 3,6 C 2,7 C 2,1 C 0,0 C 91 % 91 % 0 % 1012,4 hPa 0,0 l/m 0,0 km/h (0 Bft) NW 315 0 min 0,0 UV-I 1,7 C 2,1 C 0,0 km/h (0 Bft)
03.11.2011 03:40 2,9 C 14,0 C 3,4 C 2,6 C 2,1 C 0,0 C 91 % 91 % 0 % 1012,2 hPa 0,0 l/m 0,0 km/h (0 Bft) NW 315 0 min 0,0 UV-I 1,6 C 2,1 C 0,0 km/h (0 Bft)
03.11.2011 03:45 2,9 C 14,0 C 3,4 C 2,6 C 2,1 C 0,0 C 91 % 91 % 0 % 1012,2 hPa 0,0 l/m 0,0 km/h (0 Bft) W-NW 292 0 min 0,0 UV-I 1,6 C 2,1 C 0,0 km/h (0 Bft)
03.11.2011 03:50 2,9 C 14,0 C 3,5 C 2,7 C 2,2 C 0,0 C 91 % 92 % 0 % 1012,2 hPa 0,0 l/m 0,0 km/h (0 Bft) NW 315 0 min 0,0 UV-I 1,6 C 2,2 C 0,0 km/h (0 Bft)
03.11.2011 03:55 2,8 C 14,0 C 3,5 C 2,6 C 2,2 C 0,0 C 91 % 92 % 0 % 1012,2 hPa 0,0 l/m 0,0 km/h (0 Bft) NW 315 0 min 0,0 UV-I 1,5 C 2,2 C 0,0 km/h (0 Bft)
03.11.2011 04:00 2,8 C 13,9 C 3,5 C 2,6 C 2,2 C 0,0 C 91 % 92 % 0 % 1012,8 hPa 0,0 l/m 0,0 km/h (0 Bft) NW 315 0 min 0,0 UV-I 1,5 C 2,2 C 0,0 km/h (0 Bft)
03.11.2011 04:10 2,8 C 13,9 C 3,5 C 2,6 C 2,2 C 0,0 C 91 % 92 % 0 % 1012,8 hPa 0,0 l/m 0,0 km/h (0 Bft) N 0 0 min 0,0 UV-I 1,5 C 2,2 C 0,0 km/h (0 Bft)
03.11.2011 04:20 2,7 C 13,9 C 3,2 C 2,5 C 2,0 C 0,0 C 91 % 91 % 0 % 1011,4 hPa 0,0 l/m 0,0 km/h (0 Bft) N-NW 337 0 min 0,0 UV-I 1,4 C 2,0 C 0,0 km/h (0 Bft)
03.11.2011 04:25 2,7 C 13,9 C 3,2 C 2,4 C 1,9 C 0,0 C 91 % 91 % 0 % 1011,4 hPa 0,0 l/m 0,5 km/h (0 Bft) SW 225 0 min 0,0 UV-I 1,4 C 1,9 C 0,0 km/h (0 Bft)
03.11.2011 04:30 2,5 C 13,9 C 3,1 C 2,3 C 1,8 C 0,0 C 91 % 91 % 0 % 1011,4 hPa 0,0 l/m 0,5 km/h (0 Bft) SO 135 0 min 0,0 UV-I 1,2 C 1,8 C 3,9 km/h (1 Bft)
03.11.2011 04:35 2,5 C 13,9 C 3,1 C 2,2 C 1,7 C 0,0 C 91 % 91 % 0 % 1011,4 hPa 0,0 l/m 0,5 km/h (0 Bft) W-NW 292 0 min 0,0 UV-I 1,2 C 1,7 C 1,8 km/h (1 Bft)
03.11.2011 04:40 2,5 C 13,9 C 3,2 C 2,3 C 1,8 C 0,0 C 91 % 91 % 0 % 1011,9 hPa 0,0 l/m 0,5 km/h (0 Bft) W 270 0 min 0,0 UV-I 1,2 C 1,8 C 0,0 km/h (0 Bft)
03.11.2011 04:45 2,5 C 13,9 C 3,2 C 2,3 C 1,8 C 0,0 C 91 % 91 % 0 % 1011,9 hPa 0,0 l/m 0,2 km/h (0 Bft) W-NW 292 0 min 0,0 UV-I 1,2 C 1,8 C 0,0 km/h (0 Bft)
03.11.2011 04:50 2,4 C 13,8 C 3,2 C 2,2 C 1,8 C 0,0 C 91 % 91 % 0 % 1011,9 hPa 0,0 l/m 0,0 km/h (0 Bft) O 90 0 min 0,0 UV-I 1,1 C 1,8 C 2,3 km/h (1 Bft)
03.11.2011 04:55 2,5 C 13,8 C 2,9 C 2,3 C 2,0 C 0,0 C 92 % 91 % 0 % 1011,9 hPa 0,0 l/m 0,8 km/h (0 Bft) N 360 0 min 0,0 UV-I 1,3 C 2,0 C 0,0 km/h (0 Bft)
03.11.2011 05:00 2,5 C 13,8 C 3,0 C 2,4 C 2,1 C 0,0 C 92 % 91 % 0 % 1011,8 hPa 0,0 l/m 0,8 km/h (0 Bft) N-NO 22 0 min 0,0 UV-I 1,3 C 2,1 C 0,0 km/h (0 Bft)
03.11.2011 05:10 2,5 C 13,8 C 3,1 C 2,3 C 2,0 C 0,0 C 92 % 91 % 0 % 1011,8 hPa 0,0 l/m 0,3 km/h (0 Bft) N 0 0 min 0,0 UV-I 1,3 C 2,0 C 2,1 km/h (1 Bft)
03.11.2011 05:20 2,4 C 13,8 C 3,1 C 2,3 C 2,1 C 0,0 C 92 % 91 % 0 % 1011,7 hPa 0,0 l/m 0,3 km/h (0 Bft) O-NO 67 0 min 0,0 UV-I 1,2 C 2,1 C 1,6 km/h (1 Bft)
03.11.2011 05:25 2,5 C 13,8 C 3,1 C 2,4 C 2,2 C 0,0 C 92 % 91 % 0 % 1011,7 hPa 0,0 l/m 0,2 km/h (0 Bft) NW 315 0 min 0,0 UV-I 1,3 C 2,2 C 0,0 km/h (0 Bft)
03.11.2011 05:30 2,5 C 13,8 C 3,1 C 2,4 C 2,1 C 0,0 C 92 % 92 % 0 % 1011,7 hPa 0,0 l/m 1,0 km/h (0 Bft) W-SW 247 0 min 0,0 UV-I 1,3 C 2,1 C 3,5 km/h (1 Bft)
03.11.2011 05:35 2,2 C 13,8 C 2,8 C 2,1 C 1,8 C 0,0 C 91 % 91 % 0 % 1011,7 hPa 0,0 l/m 1,0 km/h (0 Bft) O-NO 67 0 min 0,0 UV-I 0,9 C 1,8 C 0,0 km/h (0 Bft)
03.11.2011 05:40 2,3 C 13,8 C 2,7 C 2,1 C 1,6 C 0,0 C 92 % 91 % 0 % 1011,3 hPa 0,0 l/m 0,6 km/h (0 Bft) O 90 0 min 0,0 UV-I 1,1 C 1,6 C 1,9 km/h (1 Bft)
03.11.2011 05:45 2,2 C 13,8 C 2,7 C 2,0 C 1,6 C 0,0 C 92 % 91 % 0 % 1011,3 hPa 0,0 l/m 0,3 km/h (0 Bft) O-NO 67 0 min 0,0 UV-I 1,0 C 1,6 C 0,0 km/h (0 Bft)
03.11.2011 05:50 2,1 C 13,8 C 2,6 C 1,9 C 1,5 C 0,0 C 92 % 91 % 0 % 1011,3 hPa 0,0 l/m 0,3 km/h (0 Bft) O 90 0 min 0,0 UV-I 0,9 C 1,5 C 0,0 km/h (0 Bft)
03.11.2011 05:55 2,1 C 13,8 C 2,7 C 1,9 C 1,6 C 0,0 C 92 % 91 % 0 % 1011,3 hPa 0,0 l/m 0,0 km/h (0 Bft) N-NW 337 0 min 0,0 UV-I 0,9 C 1,6 C 0,0 km/h (0 Bft)
03.11.2011 06:00 2,1 C 13,7 C 2,7 C 1,9 C 1,6 C 0,0 C 92 % 91 % 0 % 1011,8 hPa 0,0 l/m 0,0 km/h (0 Bft) NW 315 0 min 0,0 UV-I 0,9 C 1,6 C 0,0 km/h (0 Bft)
03.11.2011 06:10 2,0 C 13,7 C 2,8 C 1,8 C 1,3 C 0,0 C 92 % 92 % 0 % 1011,8 hPa 0,0 l/m 0,0 km/h (0 Bft) N 0 0 min 0,0 UV-I 0,8 C 1,3 C 0,0 km/h (0 Bft)
03.11.2011 06:20 2,1 C 13,7 C 2,7 C 1,9 C 1,6 C 0,0 C 92 % 92 % 0 % 1011,4 hPa 0,0 l/m 0,0 km/h (0 Bft) O-NO 67 0 min 0,0 UV-I 0,9 C 1,6 C 0,0 km/h (0 Bft)
03.11.2011 06:25 2,1 C 13,7 C 2,7 C 2,0 C 1,7 C 0,0 C 92 % 92 % 0 % 1011,4 hPa 0,0 l/m 0,0 km/h (0 Bft) N 360 0 min 0,0 UV-I 0,9 C 1,7 C 0,0 km/h (0 Bft)
03.11.2011 06:30 2,1 C 13,7 C 2,7 C 2,0 C 1,8 C 0,0 C 92 % 92 % 0 % 1011,4 hPa 0,0 l/m 0,0 km/h (0 Bft) NO 45 0 min 0,0 UV-I 0,9 C 1,8 C 0,0 km/h (0 Bft)
03.11.2011 06:35 2,0 C 13,7 C 2,7 C 1,8 C 1,5 C 0,0 C 92 % 92 % 0 % 1011,4 hPa 0,0 l/m 0,8 km/h (0 Bft) W-SW 247 0 min 0,0 UV-I 0,8 C 1,5 C 0,0 km/h (0 Bft)
03.11.2011 06:40 1,9 C 13,7 C 2,5 C 1,6 C 1,1 C 0,0 C 92 % 92 % 0 % 1011,3 hPa 0,0 l/m 0,8 km/h (0 Bft) S-SW 202 0 min 0,0 UV-I 0,7 C 1,1 C 0,0 km/h (0 Bft)
03.11.2011 06:45 1,7 C 13,7 C 2,4 C 1,5 C 1,0 C 0,0 C 92 % 91 % 0 % 1011,3 hPa 0,0 l/m 0,0 km/h (0 Bft) O 90 0 min 0,0 UV-I 0,5 C 1,0 C 0,0 km/h (0 Bft)
03.11.2011 06:50 1,6 C 13,6 C 2,3 C 1,3 C 0,8 C 0,0 C 92 % 91 % 0 % 1011,3 hPa 0,0 l/m 0,0 km/h (0 Bft) O-NO 67 0 min 0,0 UV-I 0,4 C 0,8 C 0,0 km/h (0 Bft)
03.11.2011 06:55 1,6 C 13,6 C 2,2 C 1,3 C 0,6 C 0,0 C 92 % 91 % 0 % 1011,3 hPa 0,0 l/m 0,0 km/h (0 Bft) O-NO 67 0 min 0,0 UV-I 0,4 C 0,6 C 0,0 km/h (0 Bft)
03.11.2011 07:00 1,6 C 13,6 C 2,1 C 1,3 C 0,7 C 0,0 C 92 % 91 % 0 % 1011,2 hPa 0,0 l/m 0,3 km/h (0 Bft) O-NO 67 0 min 0,0 UV-I 0,4 C 0,7 C 0,0 km/h (0 Bft)
03.11.2011 07:10 1,7 C 13,6 C 2,3 C 1,5 C 1,0 C 0,0 C 92 % 92 % 0 % 1011,2 hPa 0,0 l/m 0,0 km/h (0 Bft) N 0 0 min 0,0 UV-I 0,5 C 1,0 C 0,0 km/h (0 Bft)
03.11.2011 07:20 1,6 C 13,6 C 2,1 C 1,4 C 0,9 C 0,0 C 92 % 92 % 0 % 1012,1 hPa 0,0 l/m 0,0 km/h (0 Bft) O-NO 67 0 min 0,0 UV-I 0,4 C 0,9 C 0,0 km/h (0 Bft)
03.11.2011 07:25 1,5 C 13,6 C 2,3 C 1,3 C 0,8 C 0,0 C 92 % 92 % 0 % 1012,1 hPa 0,0 l/m 0,0 km/h (0 Bft) W-SW 247 0 min 0,0 UV-I 0,3 C 0,8 C 0,0 km/h (0 Bft)
03.11.2011 07:30 1,5 C 13,6 C 2,4 C 1,3 C 0,8 C 0,0 C 92 % 92 % 0 % 1012,1 hPa 0,0 l/m 0,0 km/h (0 Bft) W-NW 292 0 min 0,0 UV-I 0,3 C 0,8 C 0,0 km/h (0 Bft)
03.11.2011 07:35 1,5 C 13,6 C 2,3 C 1,3 C 0,8 C 0,0 C 92 % 92 % 0 % 1012,1 hPa 0,0 l/m 0,0 km/h (0 Bft) O 90 0 min 0,0 UV-I 0,3 C 0,8 C 0,0 km/h (0 Bft)
03.11.2011 07:40 1,5 C 13,6 C 2,3 C 1,3 C 1,0 C 0,0 C 92 % 92 % 0 % 1012,2 hPa 0,0 l/m 0,3 km/h (0 Bft) O-NO 67 0 min 0,0 UV-I 0,3 C 1,0 C 1,6 km/h (1 Bft)
03.11.2011 07:45 1,6 C 13,6 C 2,3 C 1,5 C 1,3 C 0,0 C 92 % 92 % 0 % 1012,2 hPa 0,0 l/m 0,3 km/h (0 Bft) SW 225 0 min 0,0 UV-I 0,4 C 1,3 C 0,0 km/h (0 Bft)
03.11.2011 07:50 1,7 C 13,6 C 2,4 C 1,6 C 1,4 C 0,0 C 92 % 92 % 0 % 1012,2 hPa 0,0 l/m 0,2 km/h (0 Bft) O 90 0 min 0,0 UV-I 0,5 C 1,4 C 0,0 km/h (0 Bft)
03.11.2011 07:55 1,9 C 13,6 C 2,5 C 1,8 C 1,6 C 0,0 C 92 % 92 % 0 % 1012,2 hPa 0,0 l/m 0,0 km/h (0 Bft) O 90 0 min 0,0 UV-I 0,7 C 1,6 C 0,0 km/h (0 Bft)
03.11.2011 08:00 2,0 C 13,6 C 2,5 C 1,9 C 1,8 C 0,0 C 92 % 92 % 0 % 1012,0 hPa 0,0 l/m 0,2 km/h (0 Bft) O 90 0 min 0,0 UV-I 0,8 C 1,8 C 0,0 km/h (0 Bft)
03.11.2011 08:13 2,1 C 13,6 C 2,7 C 2,3 C 2,3 C 0,2 C 92 % 92 % 5 % 1012,0 hPa 0,0 l/m 0,0 km/h (0 Bft) O-NO 67 0 min 0,0 UV-I 0,9 C 2,3 C 0,0 km/h (0 Bft)
03.11.2011 08:14 2,1 C 13,6 C 2,7 C 2,3 C 2,3 C 0,2 C 92 % 92 % 5 % 1012,0 hPa 0,0 l/m 0,0 km/h (0 Bft) O-NO 67 0 min 0,0 UV-I 0,9 C 2,3 C 0,0 km/h (0 Bft)
03.11.2011 08:17 2,0 C 13,5 C 2,8 C 2,3 C 2,3 C 0,3 C 92 % 93 % 8 % 1012,0 hPa 0,0 l/m 0,5 km/h (0 Bft) NW 315 0 min 0,0 UV-I 0,8 C 2,3 C 0,0 km/h (0 Bft)
03.11.2011 08:28 2,1 C 13,5 C 2,9 C 2,4 C 2,4 C 0,3 C 92 % 93 % 8 % 1011,4 hPa 0,0 l/m 0,3 km/h (0 Bft) W 270 0 min 0,0 UV-I 0,9 C 2,4 C 2,1 km/h (1 Bft)
03.11.2011 08:29 2,1 C 13,5 C 2,9 C 2,4 C 2,4 C 0,3 C 92 % 93 % 8 % 1011,4 hPa 0,0 l/m 0,3 km/h (0 Bft) W 270 0 min 0,0 UV-I 0,9 C 2,4 C 2,1 km/h (1 Bft)
03.11.2011 08:30 2,3 C 13,5 C 3,1 C 2,6 C 2,6 C 0,3 C 93 % 93 % 8 % 1011,4 hPa 0,0 l/m 0,5 km/h (0 Bft) NW 315 0 min 0,0 UV-I 1,3 C 2,6 C 0,0 km/h (0 Bft)
03.11.2011 08:31 2,3 C 13,5 C 3,1 C 2,6 C 2,6 C 0,3 C 93 % 93 % 8 % 1011,4 hPa 0,0 l/m 0,5 km/h (0 Bft) NW 315 0 min 0,0 UV-I 1,3 C 2,6 C 0,0 km/h (0 Bft)
03.11.2011 08:35 2,4 C 13,5 C 3,2 C 3,0 C 3,0 C 0,6 C 93 % 93 % 16 % 1011,4 hPa 0,0 l/m 0,3 km/h (0 Bft) W-SW 247 0 min 0,0 UV-I 1,4 C 3,0 C 0,0 km/h (0 Bft)
03.11.2011 08:40 2,4 C 13,4 C 3,5 C 3,0 C 3,0 C 0,6 C 93 % 93 % 16 % 1012,5 hPa 0,0 l/m 0,2 km/h (0 Bft) W-SW 247 0 min 0,0 UV-I 1,4 C 3,0 C 1,9 km/h (1 Bft)
03.11.2011 08:45 2,7 C 13,3 C 3,6 C 3,5 C 3,5 C 0,8 C 93 % 93 % 21 % 1012,5 hPa 0,0 l/m 0,2 km/h (0 Bft) W 270 0 min 0,0 UV-I 1,7 C 3,5 C 0,0 km/h (0 Bft)
03.11.2011 08:50 2,8 C 13,3 C 3,8 C 3,6 C 3,6 C 0,8 C 93 % 93 % 21 % 1012,5 hPa 0,0 l/m 0,5 km/h (0 Bft) W-SW 247 0 min 0,0 UV-I 1,8 C 3,6 C 2,7 km/h (1 Bft)
03.11.2011 08:55 3,2 C 13,2 C 4,0 C 4,0 C 4,0 C 0,8 C 93 % 93 % 21 % 1012,5 hPa 0,0 l/m 0,3 km/h (0 Bft) W-SW 247 0 min 0,0 UV-I 2,2 C 4,0 C 0,0 km/h (0 Bft)
03.11.2011 09:00 3,3 C 13,2 C 4,3 C 4,2 C 4,2 C 0,9 C 93 % 93 % 24 % 1011,3 hPa 0,0 l/m 0,2 km/h (0 Bft) W-SW 247 0 min 0,0 UV-I 2,3 C 4,2 C 0,0 km/h (0 Bft)
03.11.2011 09:10 3,8 C 13,1 C 4,7 C 4,7 C 4,7 C 0,9 C 94 % 93 % 24 % 1011,3 hPa 0,0 l/m 0,3 km/h (0 Bft) N 0 0 min 0,0 UV-I 2,9 C 4,7 C 2,7 km/h (1 Bft)
03.11.2011 09:20 4,1 C 13,1 C 5,1 C 5,3 C 5,3 C 1,2 C 93 % 93 % 32 % 1011,7 hPa 0,0 l/m 0,6 km/h (0 Bft) SW 225 0 min 0,0 UV-I 3,1 C 5,3 C 0,0 km/h (0 Bft)
03.11.2011 09:25 4,2 C 13,1 C 5,2 C 5,5 C 5,5 C 1,3 C 93 % 93 % 34 % 1011,7 hPa 0,0 l/m 0,0 km/h (0 Bft) W-SW 247 0 min 0,0 UV-I 3,2 C 5,5 C 0,0 km/h (0 Bft)
03.11.2011 09:30 4,4 C 13,1 C 5,5 C 5,8 C 5,8 C 1,4 C 93 % 93 % 37 % 1011,7 hPa 0,0 l/m 0,0 km/h (0 Bft) W-SW 247 0 min 0,0 UV-I 3,4 C 5,8 C 0,0 km/h (0 Bft)
03.11.2011 09:35 4,9 C 13,0 C 5,7 C 6,0 C 6,0 C 1,1 C 94 % 92 % 29 % 1011,7 hPa 0,0 l/m 1,0 km/h (0 Bft) W-SW 247 0 min 0,0 UV-I 4,0 C 6,0 C 0,0 km/h (0 Bft)
03.11.2011 09:40 5,0 C 13,0 C 5,9 C 6,3 C 6,3 C 1,3 C 94 % 92 % 34 % 1011,6 hPa 0,0 l/m 0,8 km/h (0 Bft) W-SW 247 0 min 0,0 UV-I 4,1 C 6,3 C 0,0 km/h (0 Bft)
03.11.2011 09:45 5,3 C 13,0 C 6,1 C 6,5 C 6,5 C 1,2 C 94 % 92 % 32 % 1011,6 hPa 0,0 l/m 0,0 km/h (0 Bft) W-SW 247 0 min 0,0 UV-I 4,4 C 6,5 C 0,0 km/h (0 Bft)
03.11.2011 09:50 5,4 C 13,0 C 6,3 C 6,8 C 6,8 C 1,4 C 94 % 92 % 37 % 1011,6 hPa 0,0 l/m 0,0 km/h (0 Bft) N-NW 337 0 min 0,0 UV-I 4,5 C 6,8 C 0,0 km/h (0 Bft)
03.11.2011 09:55 5,9 C 13,0 C 6,4 C 7,4 C 7,4 C 1,5 C 94 % 92 % 39 % 1011,6 hPa 0,0 l/m 0,2 km/h (0 Bft) W-SW 247 0 min 0,0 UV-I 5,0 C 7,4 C 0,0 km/h (0 Bft)
03.11.2011 10:00 6,0 C 12,9 C 6,6 C 7,6 C 7,6 C 1,6 C 94 % 92 % 42 % 1011,5 hPa 0,0 l/m 0,2 km/h (0 Bft) O-NO 67 0 min 0,0 UV-I 5,1 C 7,6 C 2,4 km/h (1 Bft)
03.11.2011 10:10 6,8 C 12,9 C 7,2 C 8,6 C 8,6 C 1,8 C 94 % 92 % 47 % 1011,5 hPa 0,0 l/m 0,2 km/h (0 Bft) N 0 0 min 0,0 UV-I 5,9 C 8,6 C 0,0 km/h (0 Bft)
03.11.2011 10:20 7,5 C 12,9 C 7,6 C 9,3 C 9,3 C 1,8 C 93 % 91 % 47 % 1011,5 hPa 0,0 l/m 0,3 km/h (0 Bft) O-NO 67 0 min 0,0 UV-I 6,4 C 9,3 C 0,0 km/h (0 Bft)
03.11.2011 10:25 8,0 C 12,9 C 8,1 C 9,8 C 9,8 C 1,8 C 93 % 91 % 47 % 1011,5 hPa 0,0 l/m 0,5 km/h (0 Bft) NO 45 0 min 0,0 UV-I 6,9 C 9,8 C 0,0 km/h (0 Bft)
03.11.2011 10:30 8,6 C 12,9 C 8,7 C 10,1 C 10,1 C 1,5 C 93 % 90 % 39 % 1011,5 hPa 0,0 l/m 1,4 km/h (1 Bft) O-NO 67 0 min 0,0 UV-I 7,5 C 10,1 C 4,0 km/h (1 Bft)
03.11.2011 10:35 9,4 C 12,9 C 9,1 C 10,7 C 10,7 C 1,3 C 90 % 89 % 34 % 1011,5 hPa 0,0 l/m 1,6 km/h (1 Bft) NO 45 0 min 0,0 UV-I 7,8 C 10,7 C 3,7 km/h (1 Bft)
03.11.2011 10:40 9,8 C 12,9 C 9,2 C 11,2 C 11,2 C 1,4 C 88 % 89 % 37 % 1011,3 hPa 0,0 l/m 1,6 km/h (1 Bft) NO 45 0 min 0,0 UV-I 7,9 C 11,2 C 4,3 km/h (1 Bft)
03.11.2011 10:45 10,3 C 12,9 C 9,2 C 11,8 C 11,8 C 1,5 C 86 % 88 % 39 % 1011,3 hPa 0,0 l/m 1,3 km/h (1 Bft) NO 45 0 min 0,0 UV-I 8,1 C 11,8 C 0,0 km/h (0 Bft)
03.11.2011 10:50 10,7 C 12,9 C 9,7 C 12,1 C 12,1 C 1,4 C 83 % 88 % 37 % 1011,3 hPa 0,0 l/m 0,8 km/h (0 Bft) O-NO 67 0 min 0,0 UV-I 7,9 C 12,1 C 0,0 km/h (0 Bft)
03.11.2011 10:55 11,1 C 12,9 C 9,7 C 12,6 C 12,6 C 1,5 C 82 % 87 % 39 % 1011,3 hPa 0,0 l/m 0,6 km/h (0 Bft) W-SW 247 0 min 0,0 UV-I 8,1 C 12,6 C 1,6 km/h (1 Bft)
03.11.2011 11:00 11,3 C 13,0 C 9,8 C 13,1 C 13,1 C 1,8 C 81 % 87 % 47 % 1011,4 hPa 0,0 l/m 0,5 km/h (0 Bft) W-SW 247 0 min 0,0 UV-I 8,2 C 13,1 C 0,0 km/h (0 Bft)
03.11.2011 11:10 12,0 C 12,9 C 10,3 C 14,2 C 14,2 C 2,2 C 78 % 86 % 58 % 1011,4 hPa 0,0 l/m 1,4 km/h (1 Bft) N 0 0 min 0,0 UV-I 8,3 C 14,2 C 4,7 km/h (1 Bft)
03.11.2011 11:20 12,5 C 12,9 C 10,8 C 15,3 C 15,3 C 2,8 C 74 % 84 % 74 % 1011,1 hPa 0,0 l/m 0,8 km/h (0 Bft) O-NO 67 0 min 0,0 UV-I 8,0 C 15,3 C 3,5 km/h (1 Bft)
03.11.2011 11:25 12,9 C 12,9 C 11,3 C 15,5 C 15,5 C 2,6 C 73 % 83 % 68 % 1011,1 hPa 0,0 l/m 1,0 km/h (0 Bft) N-NW 337 0 min 0,0 UV-I 8,2 C 15,5 C 0,0 km/h (0 Bft)
03.11.2011 11:30 13,0 C 12,9 C 11,2 C 16,3 C 16,3 C 3,3 C 73 % 82 % 87 % 1011,1 hPa 0,0 l/m 0,6 km/h (0 Bft) SO 135 5 min 0,0 UV-I 8,3 C 16,3 C 0,0 km/h (0 Bft)
03.11.2011 11:35 13,1 C 12,9 C 11,5 C 18,0 C 18,0 C 4,9 C 72 % 81 % 100 % 1011,1 hPa 0,0 l/m 0,3 km/h (0 Bft) S-SW 202 5 min 0,0 UV-I 8,2 C 18,0 C 1,8 km/h (1 Bft)
03.11.2011 11:40 13,3 C 12,9 C 11,5 C 19,0 C 19,0 C 5,7 C 71 % 81 % 100 % 1011,1 hPa 0,0 l/m 0,2 km/h (0 Bft) O-NO 67 5 min 0,0 UV-I 8,2 C 19,0 C 0,0 km/h (0 Bft)
03.11.2011 11:45 13,5 C 12,9 C 12,1 C 19,0 C 19,0 C 5,5 C 69 % 80 % 100 % 1011,1 hPa 0,0 l/m 1,8 km/h (1 Bft) O 90 5 min 0,0 UV-I 7,9 C 19,0 C 3,1 km/h (1 Bft)
03.11.2011 11:50 13,6 C 12,9 C 12,4 C 18,4 C 18,4 C 4,8 C 70 % 79 % 100 % 1011,1 hPa 0,0 l/m 2,4 km/h (1 Bft) O-SO 112 5 min 0,0 UV-I 8,2 C 18,4 C 5,0 km/h (1 Bft)
03.11.2011 11:55 13,7 C 12,9 C 12,4 C 17,6 C 17,6 C 3,9 C 68 % 78 % 100 % 1011,1 hPa 0,0 l/m 2,4 km/h (1 Bft) O-NO 67 5 min 0,0 UV-I 7,9 C 17,6 C 5,1 km/h (1 Bft)
03.11.2011 12:00 13,9 C 13,0 C 12,7 C 17,4 C 17,4 C 3,5 C 68 % 77 % 92 % 1010,8 hPa 0,0 l/m 2,7 km/h (1 Bft) O-NO 67 5 min 0,0 UV-I 8,1 C 17,4 C 6,1 km/h (2 Bft)
03.11.2011 12:10 14,1 C 13,0 C 13,3 C 16,4 C 16,4 C 2,3 C 68 % 76 % 61 % 1010,8 hPa 0,0 l/m 5,5 km/h (1 Bft) N 0 0 min 0,0 UV-I 8,3 C 16,4 C 7,6 km/h (2 Bft)
03.11.2011 12:20 14,3 C 13,0 C 13,2 C 16,4 C 16,4 C 2,1 C 67 % 76 % 55 % 1010,6 hPa 0,0 l/m 3,4 km/h (1 Bft) O 90 0 min 0,0 UV-I 8,3 C 16,4 C 8,4 km/h (2 Bft)
03.11.2011 12:25 14,5 C 13,0 C 13,5 C 16,3 C 16,3 C 1,8 C 68 % 74 % 47 % 1010,6 hPa 0,0 l/m 5,5 km/h (1 Bft) O 90 0 min 0,0 UV-I 8,7 C 16,3 C 8,2 km/h (2 Bft)
03.11.2011 12:30 14,4 C 13,0 C 13,7 C 16,0 C 16,0 C 1,6 C 68 % 74 % 42 % 1010,6 hPa 0,0 l/m 6,0 km/h (2 Bft) O-NO 67 0 min 0,0 UV-I 8,6 C 16,0 C 5,6 km/h (1 Bft)
03.11.2011 12:35 14,3 C 13,0 C 13,7 C 16,1 C 16,1 C 1,8 C 67 % 74 % 47 % 1010,6 hPa 0,0 l/m 7,1 km/h (2 Bft) O-NO 67 0 min 0,0 UV-I 8,3 C 16,1 C 8,9 km/h (2 Bft)
03.11.2011 12:40 14,2 C 13,0 C 13,7 C 15,8 C 15,8 C 1,6 C 68 % 74 % 42 % 1010,5 hPa 0,0 l/m 7,9 km/h (2 Bft) O 90 0 min 0,0 UV-I 8,4 C 15,8 C 11,1 km/h (2 Bft)
03.11.2011 12:45 14,2 C 13,1 C 13,7 C 15,5 C 15,3 C 1,3 C 68 % 74 % 34 % 1010,5 hPa 0,0 l/m 8,0 km/h (2 Bft) O 90 0 min 0,0 UV-I 8,4 C 15,3 C 7,7 km/h (2 Bft)
03.11.2011 12:50 14,2 C 13,1 C 13,7 C 15,6 C 15,6 C 1,4 C 68 % 73 % 37 % 1010,5 hPa 0,0 l/m 7,7 km/h (2 Bft) O-NO 67 0 min 0,0 UV-I 8,4 C 15,6 C 11,4 km/h (2 Bft)
03.11.2011 12:55 14,3 C 13,1 C 13,9 C 16,1 C 16,1 C 1,8 C 68 % 73 % 47 % 1010,5 hPa 0,0 l/m 6,8 km/h (2 Bft) O 90 0 min 0,0 UV-I 8,5 C 16,1 C 6,9 km/h (2 Bft)
03.11.2011 13:00 14,4 C 13,1 C 13,9 C 16,6 C 16,6 C 2,2 C 68 % 73 % 58 % 1010,6 hPa 0,0 l/m 5,8 km/h (2 Bft) O 90 0 min 0,0 UV-I 8,6 C 16,6 C 6,6 km/h (2 Bft)
03.11.2011 13:10 14,4 C 13,1 C 13,9 C 16,6 C 16,6 C 2,2 C 68 % 73 % 58 % 1010,6 hPa 0,0 l/m 7,2 km/h (2 Bft) N 0 0 min 0,0 UV-I 8,6 C 16,6 C 8,9 km/h (2 Bft)
03.11.2011 13:20 14,5 C 13,2 C 13,9 C 17,1 C 17,1 C 2,6 C 67 % 73 % 68 % 1010,3 hPa 0,0 l/m 6,6 km/h (2 Bft) O-SO 112 0 min 0,0 UV-I 8,4 C 17,1 C 4,5 km/h (1 Bft)
03.11.2011 13:25 14,4 C 13,2 C 14,1 C 17,8 C 17,8 C 3,4 C 66 % 72 % 89 % 1010,3 hPa 0,0 l/m 5,6 km/h (1 Bft) O-NO 67 5 min 0,0 UV-I 8,1 C 17,8 C 5,6 km/h (1 Bft)
03.11.2011 13:30 14,4 C 13,2 C 14,1 C 18,0 C 18,0 C 3,6 C 66 % 72 % 95 % 1010,3 hPa 0,0 l/m 5,6 km/h (1 Bft) O-NO 67 5 min 0,0 UV-I 8,1 C 18,0 C 8,9 km/h (2 Bft)
03.11.2011 13:35 14,4 C 13,2 C 14,0 C 18,0 C 18,0 C 3,6 C 66 % 71 % 95 % 1010,3 hPa 0,0 l/m 5,6 km/h (1 Bft) O 90 5 min 0,0 UV-I 8,1 C 18,0 C 4,2 km/h (1 Bft)
03.11.2011 13:40 14,4 C 13,3 C 14,1 C 18,1 C 18,1 C 3,7 C 66 % 71 % 97 % 1009,8 hPa 0,0 l/m 5,0 km/h (1 Bft) O 90 5 min 0,0 UV-I 8,1 C 18,1 C 3,2 km/h (1 Bft)
03.11.2011 13:45 14,4 C 13,2 C 14,0 C 17,8 C 17,8 C 3,4 C 66 % 71 % 89 % 1009,8 hPa 0,0 l/m 4,5 km/h (1 Bft) O-NO 67 5 min 0,0 UV-I 8,1 C 17,8 C 6,4 km/h (2 Bft)
03.11.2011 13:50 14,4 C 13,2 C 14,1 C 17,6 C 17,6 C 3,2 C 66 % 71 % 84 % 1009,8 hPa 0,0 l/m 4,5 km/h (1 Bft) O 90 0 min 0,0 UV-I 8,1 C 17,6 C 4,3 km/h (1 Bft)
03.11.2011 13:55 14,3 C 13,2 C 14,3 C 17,7 C 17,7 C 3,4 C 66 % 71 % 89 % 1009,8 hPa 0,0 l/m 4,5 km/h (1 Bft) O 90 5 min 0,0 UV-I 8,0 C 17,7 C 4,0 km/h (1 Bft)
03.11.2011 14:00 14,3 C 13,3 C 15,6 C 17,9 C 17,9 C 3,6 C 65 % 69 % 95 % 1010,1 hPa 0,0 l/m 4,5 km/h (1 Bft) O 90 5 min 0,0 UV-I 7,8 C 17,9 C 4,5 km/h (1 Bft)
03.11.2011 14:10 14,2 C 13,3 C 17,4 C 17,6 C 17,6 C 3,4 C 66 % 63 % 89 % 1010,1 hPa 0,0 l/m 3,7 km/h (1 Bft) N 0 10 min 0,0 UV-I 7,9 C 17,6 C 3,7 km/h (1 Bft)
03.11.2011 14:20 14,1 C 13,3 C 18,0 C 17,8 C 17,8 C 3,7 C 67 % 61 % 97 % 1009,9 hPa 0,0 l/m 3,7 km/h (1 Bft) O 90 10 min 0,0 UV-I 8,1 C 17,8 C 4,0 km/h (1 Bft)
03.11.2011 14:25 14,1 C 13,3 C 17,9 C 17,8 C 17,8 C 3,7 C 67 % 60 % 97 % 1009,9 hPa 0,0 l/m 2,7 km/h (1 Bft) O-NO 67 5 min 0,0 UV-I 8,1 C 17,8 C 0,0 km/h (0 Bft)
03.11.2011 14:30 14,1 C 13,3 C 18,0 C 17,8 C 17,8 C 3,7 C 67 % 61 % 97 % 1009,9 hPa 0,0 l/m 2,1 km/h (1 Bft) O-NO 67 5 min 0,0 UV-I 8,1 C 17,8 C 2,9 km/h (1 Bft)
03.11.2011 14:35 14,0 C 13,5 C 17,9 C 17,8 C 17,8 C 3,8 C 66 % 59 % 100 % 1009,9 hPa 0,0 l/m 1,9 km/h (1 Bft) O-NO 67 5 min 0,0 UV-I 7,7 C 17,8 C 3,5 km/h (1 Bft)
03.11.2011 14:40 14,0 C 13,5 C 16,9 C 17,6 C 17,6 C 3,6 C 66 % 60 % 95 % 1010,2 hPa 0,0 l/m 2,4 km/h (1 Bft) NO 45 5 min 0,0 UV-I 7,7 C 17,6 C 2,4 km/h (1 Bft)
03.11.2011 14:45 14,0 C 13,5 C 15,9 C 17,5 C 17,5 C 3,5 C 66 % 62 % 92 % 1010,2 hPa 0,0 l/m 2,7 km/h (1 Bft) O-NO 67 5 min 0,0 UV-I 7,7 C 17,5 C 3,2 km/h (1 Bft)
03.11.2011 14:50 14,0 C 13,5 C 15,5 C 17,5 C 17,5 C 3,5 C 67 % 64 % 92 % 1010,2 hPa 0,0 l/m 2,7 km/h (1 Bft) O-SO 112 5 min 0,0 UV-I 8,0 C 17,5 C 1,9 km/h (1 Bft)
03.11.2011 14:55 13,9 C 13,5 C 14,9 C 17,6 C 17,6 C 3,7 C 67 % 65 % 97 % 1010,2 hPa 0,0 l/m 1,8 km/h (1 Bft) O 90 5 min 0,0 UV-I 7,9 C 17,6 C 0,0 km/h (0 Bft)
03.11.2011 15:00 13,9 C 13,5 C 14,6 C 17,8 C 17,8 C 3,9 C 67 % 66 % 100 % 1010,0 hPa 0,0 l/m 1,1 km/h (1 Bft) O-NO 67 5 min 0,0 UV-I 7,9 C 17,8 C 1,8 km/h (1 Bft)
03.11.2011 15:10 13,9 C 13,5 C 14,0 C 18,0 C 18,0 C 4,1 C 68 % 69 % 100 % 1010,0 hPa 0,0 l/m 1,0 km/h (0 Bft) N 0 10 min 0,0 UV-I 8,1 C 18,0 C 0,0 km/h (0 Bft)
03.11.2011 15:20 13,7 C 13,6 C 13,7 C 18,2 C 18,2 C 4,5 C 68 % 71 % 100 % 1010,4 hPa 0,0 l/m 0,0 km/h (0 Bft) O-NO 67 10 min 0,0 UV-I 7,9 C 18,2 C 0,0 km/h (0 Bft)
03.11.2011 15:25 13,5 C 13,6 C 13,5 C 18,0 C 18,0 C 4,5 C 68 % 71 % 100 % 1010,4 hPa 0,0 l/m 0,8 km/h (0 Bft) O-SO 112 5 min 0,0 UV-I 7,7 C 18,0 C 3,4 km/h (1 Bft)
03.11.2011 15:30 13,5 C 13,6 C 13,4 C 17,5 C 17,5 C 4,0 C 67 % 71 % 100 % 1010,4 hPa 0,0 l/m 1,6 km/h (1 Bft) O-NO 67 5 min 0,0 UV-I 7,5 C 17,5 C 4,5 km/h (1 Bft)
03.11.2011 15:35 13,5 C 13,6 C 13,3 C 16,8 C 16,8 C 3,3 C 66 % 70 % 87 % 1010,4 hPa 0,0 l/m 2,7 km/h (1 Bft) O 90 5 min 0,0 UV-I 7,3 C 16,8 C 1,9 km/h (1 Bft)
03.11.2011 15:40 13,3 C 13,6 C 13,1 C 16,6 C 16,6 C 3,3 C 66 % 70 % 87 % 1010,1 hPa 0,0 l/m 2,3 km/h (1 Bft) O 90 5 min 0,0 UV-I 7,1 C 16,6 C 2,1 km/h (1 Bft)
03.11.2011 15:45 13,3 C 13,6 C 12,8 C 16,0 C 16,0 C 2,7 C 64 % 69 % 71 % 1010,1 hPa 0,0 l/m 1,8 km/h (1 Bft) NO 45 5 min 0,0 UV-I 6,6 C 16,0 C 4,2 km/h (1 Bft)
03.11.2011 15:50 13,1 C 13,6 C 12,6 C 15,6 C 15,6 C 2,5 C 64 % 69 % 66 % 1010,1 hPa 0,0 l/m 2,7 km/h (1 Bft) O-NO 67 5 min 0,0 UV-I 6,4 C 15,6 C 4,2 km/h (1 Bft)
03.11.2011 15:55 13,0 C 13,6 C 12,5 C 15,1 C 15,1 C 2,1 C 66 % 70 % 55 % 1010,1 hPa 0,0 l/m 3,4 km/h (1 Bft) O-NO 67 5 min 0,0 UV-I 6,8 C 15,1 C 1,9 km/h (1 Bft)
03.11.2011 16:00 12,8 C 13,6 C 12,4 C 14,7 C 14,7 C 1,9 C 68 % 71 % 50 % 1010,2 hPa 0,0 l/m 3,9 km/h (1 Bft) O 90 5 min 0,0 UV-I 7,0 C 14,7 C 3,7 km/h (1 Bft)
03.11.2011 16:10 12,3 C 13,8 C 11,9 C 12,8 C 12,8 C 0,5 C 70 % 73 % 13 % 1010,2 hPa 0,0 l/m 3,9 km/h (1 Bft) N 0 0 min 0,0 UV-I 7,0 C 12,8 C 4,0 km/h (1 Bft)
03.11.2011 16:20 11,7 C 13,8 C 11,3 C 11,6 C 11,5 C 0,0 C 71 % 74 % 0 % 1010,4 hPa 0,0 l/m 3,7 km/h (1 Bft) O-NO 67 0 min 0,0 UV-I 6,6 C 11,5 C 2,9 km/h (1 Bft)
03.11.2011 16:25 11,3 C 13,8 C 11,1 C 11,2 C 10,9 C 0,0 C 72 % 75 % 0 % 1010,4 hPa 0,0 l/m 3,1 km/h (1 Bft) NO 45 0 min 0,0 UV-I 6,4 C 10,9 C 2,4 km/h (1 Bft)
03.11.2011 16:30 11,0 C 13,8 C 10,8 C 10,8 C 10,5 C 0,0 C 72 % 75 % 0 % 1010,4 hPa 0,0 l/m 2,3 km/h (1 Bft) NO 45 0 min 0,0 UV-I 6,2 C 10,5 C 2,9 km/h (1 Bft)
03.11.2011 16:35 10,7 C 13,8 C 10,4 C 10,4 C 9,9 C 0,0 C 73 % 75 % 0 % 1010,4 hPa 0,0 l/m 0,8 km/h (0 Bft) N-NO 22 0 min 0,0 UV-I 6,1 C 9,9 C 0,0 km/h (0 Bft)
03.11.2011 16:40 10,4 C 13,8 C 10,3 C 10,1 C 9,4 C 0,0 C 73 % 76 % 0 % 1011,0 hPa 0,0 l/m 0,2 km/h (0 Bft) N-NO 22 0 min 0,0 UV-I 5,8 C 9,4 C 0,0 km/h (0 Bft)
03.11.2011 16:45 10,1 C 13,8 C 10,0 C 9,7 C 8,9 C 0,0 C 74 % 77 % 0 % 1011,0 hPa 0,0 l/m 0,0 km/h (0 Bft) O 90 0 min 0,0 UV-I 5,7 C 8,9 C 0,0 km/h (0 Bft)
03.11.2011 16:50 10,0 C 13,8 C 9,9 C 9,5 C 8,6 C 0,0 C 74 % 77 % 0 % 1011,0 hPa 0,0 l/m 0,0 km/h (0 Bft) O-NO 67 0 min 0,0 UV-I 5,6 C 8,6 C 0,0 km/h (0 Bft)
03.11.2011 16:55 9,6 C 13,8 C 9,6 C 9,2 C 8,5 C 0,0 C 75 % 77 % 0 % 1011,0 hPa 0,0 l/m 0,2 km/h (0 Bft) O-NO 67 0 min 0,0 UV-I 5,4 C 8,5 C 0,0 km/h (0 Bft)
03.11.2011 17:00 9,5 C 13,8 C 9,5 C 9,1 C 8,4 C 0,0 C 75 % 77 % 0 % 1010,2 hPa 0,0 l/m 0,2 km/h (0 Bft) O-NO 67 0 min 0,0 UV-I 5,3 C 8,4 C 0,0 km/h (0 Bft)
03.11.2011 17:10 9,2 C 13,8 C 9,3 C 8,9 C 8,3 C 0,0 C 75 % 77 % 0 % 1010,2 hPa 0,0 l/m 1,0 km/h (0 Bft) N 0 0 min 0,0 UV-I 5,0 C 8,3 C 1,6 km/h (1 Bft)
03.11.2011 17:20 9,0 C 13,8 C 8,9 C 8,6 C 7,9 C 0,0 C 75 % 77 % 0 % 1010,2 hPa 0,0 l/m 0,3 km/h (0 Bft) NO 45 0 min 0,0 UV-I 4,8 C 7,9 C 0,0 km/h (0 Bft)
03.11.2011 17:25 8,8 C 13,8 C 8,7 C 8,4 C 7,5 C 0,0 C 75 % 77 % 0 % 1010,2 hPa 0,0 l/m 0,2 km/h (0 Bft) O 90 0 min 0,0 UV-I 4,6 C 7,5 C 0,0 km/h (0 Bft)
03.11.2011 17:30 8,7 C 13,8 C 8,4 C 8,3 C 7,4 C 0,0 C 75 % 78 % 0 % 1010,2 hPa 0,0 l/m 0,3 km/h (0 Bft) NO 45 0 min 0,0 UV-I 4,5 C 7,4 C 3,1 km/h (1 Bft)
03.11.2011 17:35 8,5 C 13,8 C 8,2 C 8,1 C 7,2 C 0,0 C 75 % 78 % 0 % 1010,2 hPa 0,0 l/m 0,3 km/h (0 Bft) O 90 0 min 0,0 UV-I 4,3 C 7,2 C 0,0 km/h (0 Bft)
03.11.2011 17:40 8,3 C 13,8 C 8,3 C 7,9 C 7,0 C 0,0 C 75 % 78 % 0 % 1010,2 hPa 0,0 l/m 0,2 km/h (0 Bft) O-NO 67 0 min 0,0 UV-I 4,1 C 7,0 C 0,0 km/h (0 Bft)
03.11.2011 17:45 8,1 C 13,8 C 8,1 C 7,7 C 6,8 C 0,0 C 76 % 79 % 0 % 1010,2 hPa 0,0 l/m 0,0 km/h (0 Bft) O-NO 67 0 min 0,0 UV-I 4,1 C 6,8 C 0,0 km/h (0 Bft)
03.11.2011 17:50 8,0 C 13,8 C 7,9 C 7,5 C 6,6 C 0,0 C 76 % 79 % 0 % 1010,2 hPa 0,0 l/m 0,0 km/h (0 Bft) NO 45 0 min 0,0 UV-I 4,0 C 6,6 C 0,0 km/h (0 Bft)
03.11.2011 17:55 7,7 C 13,9 C 7,6 C 7,2 C 6,2 C 0,0 C 76 % 80 % 0 % 1010,2 hPa 0,0 l/m 0,0 km/h (0 Bft) W 270 0 min 0,0 UV-I 3,7 C 6,2 C 0,0 km/h (0 Bft)
03.11.2011 18:00 7,7 C 13,9 C 7,5 C 7,1 C 6,0 C 0,0 C 77 % 80 % 0 % 1010,8 hPa 0,0 l/m 0,0 km/h (0 Bft) NW 315 0 min 0,0 UV-I 3,9 C 6,0 C 0,0 km/h (0 Bft)
03.11.2011 18:10 7,2 C 13,9 C 7,2 C 6,7 C 5,8 C 0,0 C 78 % 80 % 0 % 1010,8 hPa 0,0 l/m 0,0 km/h (0 Bft) N 0 0 min 0,0 UV-I 3,6 C 5,8 C 0,0 km/h (0 Bft)
03.11.2011 18:20 6,8 C 13,9 C 7,0 C 6,4 C 5,5 C 0,0 C 79 % 81 % 0 % 1010,3 hPa 0,0 l/m 0,0 km/h (0 Bft) W-NW 292 0 min 0,0 UV-I 3,4 C 5,5 C 0,0 km/h (0 Bft)
03.11.2011 18:25 6,7 C 13,9 C 6,8 C 6,3 C 5,4 C 0,0 C 79 % 81 % 0 % 1010,3 hPa 0,0 l/m 0,0 km/h (0 Bft) S-SO 157 0 min 0,0 UV-I 3,3 C 5,4 C 0,0 km/h (0 Bft)
03.11.2011 18:30 6,7 C 13,9 C 6,8 C 6,3 C 5,4 C 0,0 C 79 % 82 % 0 % 1010,3 hPa 0,0 l/m 0,2 km/h (0 Bft) O 90 0 min 0,0 UV-I 3,3 C 5,4 C 0,0 km/h (0 Bft)
03.11.2011 18:35 6,4 C 13,9 C 6,7 C 6,0 C 5,3 C 0,0 C 80 % 82 % 0 % 1010,3 hPa 0,0 l/m 0,2 km/h (0 Bft) W-SW 247 0 min 0,0 UV-I 3,2 C 5,3 C 0,0 km/h (0 Bft)
03.11.2011 18:40 6,4 C 13,9 C 6,5 C 6,0 C 5,2 C 0,0 C 80 % 82 % 0 % 1010,6 hPa 0,0 l/m 0,2 km/h (0 Bft) NW 315 0 min 0,0 UV-I 3,2 C 5,2 C 0,0 km/h (0 Bft)
03.11.2011 18:45 6,4 C 13,9 C 6,6 C 6,0 C 5,3 C 0,0 C 80 % 82 % 0 % 1010,6 hPa 0,0 l/m 0,3 km/h (0 Bft) O 90 0 min 0,0 UV-I 3,2 C 5,3 C 0,0 km/h (0 Bft)
03.11.2011 18:50 6,3 C 13,9 C 6,5 C 5,9 C 5,2 C 0,0 C 81 % 82 % 0 % 1010,6 hPa 0,0 l/m 0,3 km/h (0 Bft) W 270 0 min 0,0 UV-I 3,3 C 5,2 C 1,9 km/h (1 Bft)
03.11.2011 18:55 6,3 C 13,9 C 6,4 C 5,9 C 5,1 C 0,0 C 81 % 82 % 0 % 1010,6 hPa 0,0 l/m 0,2 km/h (0 Bft) N-NO 22 0 min 0,0 UV-I 3,3 C 5,1 C 0,0 km/h (0 Bft)
03.11.2011 19:00 6,3 C 13,9 C 6,5 C 5,9 C 5,1 C 0,0 C 81 % 82 % 0 % 1010,2 hPa 0,0 l/m 0,2 km/h (0 Bft) W-SW 247 0 min 0,0 UV-I 3,3 C 5,1 C 0,0 km/h (0 Bft)
03.11.2011 19:10 6,1 C 13,9 C 6,3 C 5,7 C 5,0 C 0,0 C 81 % 83 % 0 % 1010,2 hPa 0,0 l/m 0,2 km/h (0 Bft) N 0 0 min 0,0 UV-I 3,1 C 5,0 C 0,0 km/h (0 Bft)
03.11.2011 19:20 5,9 C 13,9 C 6,1 C 5,5 C 4,7 C 0,0 C 81 % 83 % 0 % 1010,7 hPa 0,0 l/m 0,0 km/h (0 Bft) W-SW 247 0 min 0,0 UV-I 2,9 C 4,7 C 0,0 km/h (0 Bft)
03.11.2011 19:25 5,9 C 13,9 C 6,0 C 5,5 C 4,7 C 0,0 C 81 % 83 % 0 % 1010,7 hPa 0,0 l/m 0,0 km/h (0 Bft) O-NO 67 0 min 0,0 UV-I 2,9 C 4,7 C 0,0 km/h (0 Bft)
03.11.2011 19:30 5,7 C 13,8 C 6,0 C 5,4 C 4,7 C 0,0 C 81 % 83 % 0 % 1010,7 hPa 0,0 l/m 0,0 km/h (0 Bft) NW 315 0 min 0,0 UV-I 2,7 C 4,7 C 0,0 km/h (0 Bft)
03.11.2011 19:35 5,7 C 13,8 C 6,0 C 5,3 C 4,6 C 0,0 C 82 % 83 % 0 % 1010,7 hPa 0,0 l/m 0,0 km/h (0 Bft) O-NO 67 0 min 0,0 UV-I 2,9 C 4,6 C 1,6 km/h (1 Bft)
03.11.2011 19:40 5,6 C 13,8 C 5,9 C 5,3 C 4,7 C 0,0 C 82 % 83 % 0 % 1010,7 hPa 0,0 l/m 0,2 km/h (0 Bft) N-NW 337 0 min 0,0 UV-I 2,8 C 4,7 C 0,0 km/h (0 Bft)
03.11.2011 19:45 5,6 C 13,8 C 5,8 C 5,3 C 4,7 C 0,0 C 82 % 84 % 0 % 1010,7 hPa 0,0 l/m 0,2 km/h (0 Bft) O-NO 67 0 min 0,0 UV-I 2,8 C 4,7 C 0,0 km/h (0 Bft)
03.11.2011 19:50 5,6 C 13,8 C 5,8 C 5,3 C 4,7 C 0,0 C 82 % 84 % 0 % 1010,7 hPa 0,0 l/m 0,0 km/h (0 Bft) NO 45 0 min 0,0 UV-I 2,8 C 4,7 C 0,0 km/h (0 Bft)
03.11.2011 19:55 5,5 C 13,8 C 5,9 C 5,2 C 4,7 C 0,0 C 82 % 84 % 0 % 1010,7 hPa 0,0 l/m 0,0 km/h (0 Bft) O-NO 67 0 min 0,0 UV-I 2,7 C 4,7 C 0,0 km/h (0 Bft)
03.11.2011 20:00 5,6 C 13,8 C 5,8 C 5,3 C 4,6 C 0,0 C 82 % 84 % 0 % 1010,2 hPa 0,0 l/m 0,3 km/h (0 Bft) N-NW 337 0 min 0,0 UV-I 2,8 C 4,6 C 0,0 km/h (0 Bft)
03.11.2011 20:10 5,6 C 13,8 C 5,7 C 5,3 C 4,7 C 0,0 C 82 % 84 % 0 % 1010,2 hPa 0,0 l/m 0,2 km/h (0 Bft) N 0 0 min 0,0 UV-I 2,8 C 4,7 C 0,0 km/h (0 Bft)
03.11.2011 20:20 5,7 C 13,8 C 5,6 C 5,4 C 4,7 C 0,0 C 82 % 84 % 0 % 1009,7 hPa 0,0 l/m 0,3 km/h (0 Bft) O-NO 67 0 min 0,0 UV-I 2,9 C 4,7 C 0,0 km/h (0 Bft)
03.11.2011 20:25 5,6 C 13,8 C 5,7 C 5,3 C 4,7 C 0,0 C 82 % 84 % 0 % 1009,7 hPa 0,0 l/m 0,6 km/h (0 Bft) W 270 0 min 0,0 UV-I 2,8 C 4,7 C 3,7 km/h (1 Bft)
03.11.2011 20:30 5,7 C 13,8 C 5,6 C 5,4 C 4,7 C 0,0 C 82 % 84 % 0 % 1009,7 hPa 0,0 l/m 0,5 km/h (0 Bft) NO 45 0 min 0,0 UV-I 2,9 C 4,7 C 0,0 km/h (0 Bft)
03.11.2011 20:35 5,6 C 13,8 C 5,6 C 5,3 C 4,7 C 0,0 C 82 % 84 % 0 % 1009,7 hPa 0,0 l/m 0,2 km/h (0 Bft) SO 135 0 min 0,0 UV-I 2,8 C 4,7 C 0,0 km/h (0 Bft)
03.11.2011 20:40 5,6 C 13,8 C 5,6 C 5,3 C 4,7 C 0,0 C 82 % 85 % 0 % 1009,8 hPa 0,0 l/m 0,3 km/h (0 Bft) W-SW 247 0 min 0,0 UV-I 2,8 C 4,7 C 0,0 km/h (0 Bft)
03.11.2011 20:45 5,6 C 13,8 C 5,6 C 5,3 C 4,6 C 0,0 C 82 % 84 % 0 % 1009,8 hPa 0,0 l/m 0,3 km/h (0 Bft) SO 135 0 min 0,0 UV-I 2,8 C 4,6 C 0,0 km/h (0 Bft)
03.11.2011 20:50 5,5 C 13,8 C 5,6 C 5,1 C 4,4 C 0,0 C 82 % 84 % 0 % 1009,8 hPa 0,0 l/m 0,0 km/h (0 Bft) S 180 0 min 0,0 UV-I 2,7 C 4,4 C 0,0 km/h (0 Bft)
03.11.2011 20:55 5,5 C 13,8 C 5,4 C 5,1 C 4,4 C 0,0 C 82 % 84 % 0 % 1009,8 hPa 0,0 l/m 0,2 km/h (0 Bft) O-NO 67 0 min 0,0 UV-I 2,7 C 4,4 C 0,0 km/h (0 Bft)
03.11.2011 21:00 5,3 C 13,8 C 5,4 C 5,0 C 4,3 C 0,0 C 82 % 84 % 0 % 1010,2 hPa 0,0 l/m 0,3 km/h (0 Bft) N-NW 337 0 min 0,0 UV-I 2,5 C 4,3 C 1,8 km/h (1 Bft)
03.11.2011 21:10 5,2 C 13,8 C 5,2 C 4,9 C 4,2 C 0,0 C 83 % 85 % 0 % 1010,2 hPa 0,0 l/m 0,5 km/h (0 Bft) N 0 0 min 0,0 UV-I 2,6 C 4,2 C 0,0 km/h (0 Bft)
03.11.2011 21:20 4,9 C 13,7 C 5,1 C 4,5 C 3,6 C 0,0 C 83 % 85 % 0 % 1009,7 hPa 0,0 l/m 0,0 km/h (0 Bft) N-NO 22 0 min 0,0 UV-I 2,3 C 3,6 C 0,0 km/h (0 Bft)
03.11.2011 21:25 4,8 C 13,7 C 5,1 C 4,4 C 3,5 C 0,0 C 83 % 85 % 0 % 1009,7 hPa 0,0 l/m 0,3 km/h (0 Bft) W-SW 247 0 min 0,0 UV-I 2,2 C 3,5 C 2,3 km/h (1 Bft)
03.11.2011 21:30 4,8 C 13,7 C 5,1 C 4,5 C 3,8 C 0,0 C 84 % 86 % 0 % 1009,7 hPa 0,0 l/m 1,0 km/h (0 Bft) S-SO 157 0 min 0,0 UV-I 2,3 C 3,8 C 1,9 km/h (1 Bft)
03.11.2011 21:35 5,0 C 13,7 C 5,3 C 4,7 C 4,2 C 0,0 C 84 % 86 % 0 % 1009,7 hPa 0,0 l/m 1,4 km/h (1 Bft) N-NO 22 0 min 0,0 UV-I 2,5 C 4,2 C 0,0 km/h (0 Bft)
03.11.2011 21:40 5,1 C 13,7 C 5,3 C 4,8 C 4,2 C 0,0 C 84 % 85 % 0 % 1009,6 hPa 0,0 l/m 0,6 km/h (0 Bft) O-SO 112 0 min 0,0 UV-I 2,6 C 4,2 C 0,0 km/h (0 Bft)
03.11.2011 21:45 5,2 C 13,7 C 5,3 C 4,9 C 4,4 C 0,0 C 84 % 85 % 0 % 1009,6 hPa 0,0 l/m 0,0 km/h (0 Bft) N-NW 337 0 min 0,0 UV-I 2,7 C 4,4 C 0,0 km/h (0 Bft)
03.11.2011 21:50 5,3 C 13,7 C 5,2 C 5,0 C 4,3 C 0,0 C 84 % 85 % 0 % 1009,6 hPa 0,0 l/m 0,0 km/h (0 Bft) W-SW 247 0 min 0,0 UV-I 2,8 C 4,3 C 0,0 km/h (0 Bft)
03.11.2011 21:55 5,1 C 13,7 C 5,1 C 4,8 C 4,1 C 0,0 C 83 % 85 % 0 % 1009,6 hPa 0,0 l/m 0,0 km/h (0 Bft) S-SW 202 0 min 0,0 UV-I 2,5 C 4,1 C 0,0 km/h (0 Bft)
03.11.2011 22:00 5,0 C 13,7 C 5,0 C 4,6 C 3,8 C 0,0 C 83 % 85 % 0 % 1009,8 hPa 0,0 l/m 0,0 km/h (0 Bft) S-SW 202 0 min 0,0 UV-I 2,4 C 3,8 C 0,0 km/h (0 Bft)
03.11.2011 22:10 4,7 C 13,7 C 4,9 C 4,3 C 3,4 C 0,0 C 83 % 86 % 0 % 1009,8 hPa 0,0 l/m 0,0 km/h (0 Bft) N 0 0 min 0,0 UV-I 2,1 C 3,4 C 0,0 km/h (0 Bft)
03.11.2011 22:20 4,6 C 13,7 C 4,8 C 4,2 C 3,5 C 0,0 C 84 % 86 % 0 % 1009,6 hPa 0,0 l/m 0,2 km/h (0 Bft) O-NO 67 0 min 0,0 UV-I 2,1 C 3,5 C 0,0 km/h (0 Bft)
03.11.2011 22:25 4,5 C 13,7 C 4,7 C 4,2 C 3,5 C 0,0 C 84 % 86 % 0 % 1009,6 hPa 0,0 l/m 0,2 km/h (0 Bft) NO 45 0 min 0,0 UV-I 2,0 C 3,5 C 0,0 km/h (0 Bft)
03.11.2011 22:30 4,5 C 13,7 C 4,7 C 4,1 C 3,4 C 0,0 C 84 % 86 % 0 % 1009,6 hPa 0,0 l/m 0,0 km/h (0 Bft) O 90 0 min 0,0 UV-I 2,0 C 3,4 C 0,0 km/h (0 Bft)
03.11.2011 22:35 4,3 C 13,7 C 4,7 C 3,9 C 3,1 C 0,0 C 85 % 86 % 0 % 1009,6 hPa 0,0 l/m 0,0 km/h (0 Bft) NO 45 0 min 0,0 UV-I 2,0 C 3,1 C 0,0 km/h (0 Bft)
03.11.2011 22:40 4,3 C 13,7 C 4,7 C 3,9 C 3,0 C 0,0 C 85 % 86 % 0 % 1009,2 hPa 0,0 l/m 0,0 km/h (0 Bft) O-SO 112 0 min 0,0 UV-I 2,0 C 3,0 C 0,0 km/h (0 Bft)
03.11.2011 22:45 4,1 C 13,7 C 4,6 C 3,7 C 3,0 C 0,0 C 85 % 86 % 0 % 1009,2 hPa 0,0 l/m 0,0 km/h (0 Bft) SO 135 0 min 0,0 UV-I 1,8 C 3,0 C 0,0 km/h (0 Bft)
03.11.2011 22:50 4,1 C 13,6 C 4,6 C 3,8 C 3,2 C 0,0 C 85 % 87 % 0 % 1009,2 hPa 0,0 l/m 0,0 km/h (0 Bft) W-SW 247 0 min 0,0 UV-I 1,8 C 3,2 C 0,0 km/h (0 Bft)
03.11.2011 22:55 4,1 C 13,6 C 4,7 C 3,8 C 3,3 C 0,0 C 86 % 87 % 0 % 1009,2 hPa 0,0 l/m 0,8 km/h (0 Bft) W-SW 247 0 min 0,0 UV-I 2,0 C 3,3 C 1,9 km/h (1 Bft)
03.11.2011 23:00 4,1 C 13,6 C 4,5 C 3,9 C 3,4 C 0,0 C 86 % 87 % 0 % 1009,1 hPa 0,0 l/m 1,0 km/h (0 Bft) SW 225 0 min 0,0 UV-I 2,0 C 3,4 C 0,0 km/h (0 Bft)
03.11.2011 23:10 4,1 C 13,6 C 4,5 C 3,9 C 3,4 C 0,0 C 87 % 87 % 0 % 1009,1 hPa 0,0 l/m 0,2 km/h (0 Bft) N 0 0 min 0,0 UV-I 2,1 C 3,4 C 0,0 km/h (0 Bft)
03.11.2011 23:20 4,2 C 13,6 C 4,7 C 4,0 C 3,5 C 0,0 C 86 % 87 % 0 % 1008,9 hPa 0,0 l/m 0,2 km/h (0 Bft) S-SW 202 0 min 0,0 UV-I 2,1 C 3,5 C 1,8 km/h (1 Bft)
03.11.2011 23:25 4,3 C 13,6 C 4,6 C 4,0 C 3,5 C 0,0 C 87 % 87 % 0 % 1008,9 hPa 0,0 l/m 0,3 km/h (0 Bft) SO 135 0 min 0,0 UV-I 2,3 C 3,5 C 0,0 km/h (0 Bft)
03.11.2011 23:30 4,3 C 13,6 C 4,7 C 4,1 C 3,7 C 0,0 C 86 % 87 % 0 % 1008,9 hPa 0,0 l/m 0,3 km/h (0 Bft) O-NO 67 0 min 0,0 UV-I 2,2 C 3,7 C 0,0 km/h (0 Bft)
03.11.2011 23:35 4,3 C 13,6 C 4,7 C 4,1 C 3,7 C 0,0 C 86 % 87 % 0 % 1008,9 hPa 0,0 l/m 0,2 km/h (0 Bft) N-NO 22 0 min 0,0 UV-I 2,2 C 3,7 C 0,0 km/h (0 Bft)
03.11.2011 23:40 4,5 C 13,6 C 4,7 C 4,3 C 3,9 C 0,0 C 86 % 87 % 0 % 1008,6 hPa 0,0 l/m 0,0 km/h (0 Bft) O-SO 112 0 min 0,0 UV-I 2,4 C 3,9 C 0,0 km/h (0 Bft)
03.11.2011 23:45 4,4 C 13,5 C 4,7 C 4,2 C 3,9 C 0,0 C 86 % 87 % 0 % 1008,6 hPa 0,0 l/m 0,2 km/h (0 Bft) NO 45 0 min 0,0 UV-I 2,3 C 3,9 C 0,0 km/h (0 Bft)
03.11.2011 23:50 4,5 C 13,5 C 4,8 C 4,4 C 4,1 C 0,0 C 86 % 87 % 0 % 1008,6 hPa 0,0 l/m 0,5 km/h (0 Bft) O-SO 112 0 min 0,0 UV-I 2,4 C 4,1 C 0,0 km/h (0 Bft)
03.11.2011 23:55 4,7 C 13,5 C 4,8 C 4,5 C 4,2 C 0,0 C 86 % 87 % 0 % 1008,6 hPa 0,0 l/m 0,3 km/h (0 Bft) SW 225 0 min 0,0 UV-I 2,6 C 4,2 C 0,0 km/h (0 Bft)
_ Min-Zeit 07:25 10:00 07:00 06:50 06:55 00:00 15:45 14:35 00:00 23:40 - 00:00 - - - 00:00 07:25 06:55 00:00
Minimum _ 1,5 C 12,9 C 2,1 C 1,3 C 0,6 C 0,0 C 64 % 59 % 0 % 1008,6 hPa - 0,0 km/h (0 Bft) - - - 0,0 UV-I 0,3 C 0,6 C 0,0 km/h (0 Bft)
_ Max-Zeit 12:25 00:00 14:20 11:40 11:40 11:40 09:10 08:17 11:35 00:00 00:00 12:45 - - 14:10 00:00 12:25 11:40 12:50
Maximum _ 14,5 C 14,3 C 18,0 C 19,0 C 19,0 C 5,7 C 94 % 93 % 100 % 1014,3 hPa 0,0 l/m 8,0 km/h
O (2 Bft)
- - 10 min 0,0 UV-I 8,7 C 19,0 C 11,4 km/h
O-NO (2 Bft)
Durchschnitt _ 6,6 C 13,6 C 6,9 C 7,2 C 6,9 C 0,8 C 83 % 84 % 20 % 1011,1 hPa #0,0 l/m 1,0 km/h (0 Bft) O-NO - #3:10 h 0,0 UV-I 3,8 C 6,9 C 1,3 km/h (1 Bft)
2011 www.wetterstation-wechselburg.de